Theta_e
278 278 278 278 279 279 279 278 276 272 274 276 277 280 279 279 280 279 278 280 284 285 286 287 288 290 292 294 295 297 299 300 302 303 306 309 314 315
278 277 277 277 277 277 277 277 276 272 270 275 275 276 277 277 277 277 277 279 280 281 283 284 286 287 289 291 293 294 296 297 298 301 303 307 310 312
275 275 275 275 274 274 274 274 273 273 269 273 275 275 274 274 275 275 275 275 275 279 281 283 284 285 287 288 289 291 292 294 296 298 300 302 306 308
274 273 273 274 273 273 272 271 272 272 270 268 271 272 272 273 273 273 274 276 275 278 281 282 284 285 286 287 289 290 290 291 293 293 295 298 301 305
273 273 272 272 271 271 271 270 271 271 271 269 269 271 272 273 272 273 274 275 276 279 281 281 282 284 285 286 287 288 288 290 291 293 294 294 296 303
272 272 272 271 272 271 270 270 270 269 269 269 269 269 271 273 274 273 273 275 276 278 279 280 281 282 284 285 286 287 289 289 289 292 295 295 295 299
271 272 272 273 274 273 271 270 270 268 269 269 269 271 272 273 273 274 273 273 274 276 276 277 278 279 280 283 283 285 286 287 288 290 292 295 295 295
271 272 273 272 274 276 277 277 276 272 271 271 272 272 272 273 274 274 273 272 270 276 274 274 277 276 278 280 283 284 285 286 287 289 292 293 295 296
272 272 272 273 273 273 275 276 277 278 278 275 273 273 273 274 274 273 273 272 271 274 275 272 275 274 277 279 283 284 285 286 287 289 292 293 295 295
272 272 272 272 273 273 273 273 273 274 275 276 275 275 276 276 276 276 275 275 276 276 276 271 275 274 276 278 282 283 285 286 287 289 290 292 295 297
273 273 273 273 274 276 274 272 273 274 278 279 279 279 279 279 278 273 270 269 268 270 274 273 274 275 276 277 279 283 285 286 287 288 289 291 294 295
272 273 275 274 276 277 274 273 272 273 272 271 274 271 273 271 274 272 270 267 267 267 274 273 274 274 272 276 278 280 281 284 286 286 289 292 295 294
270 270 273 275 276 277 278 273 272 273 273 268 267 267 268 269 270 271 272 270 268 268 273 273 273 274 273 273 276 278 279 280 281 282 286 289 294 293
270 272 272 274 276 277 275 274 275 274 264 264 264 265 266 267 269 271 271 271 272 271 272 272 270 271 272 273 273 277 278 279 280 280 283 286 290 293
272 273 274 273 273 271 271 272 271 265 264 263 263 265 267 269 269 269 271 271 271 271 273 273 273 274 274 272 273 275 276 278 280 279 281 284 287 288
272 266 268 268 268 269 266 267 266 265 265 264 264 266 267 267 266 268 268 268 268 268 271 273 272 272 270 272 275 275 277 276 279 280 280 284 286 288
259 257 259 262 262 263 263 263 264 264 264 264 264 264 265 266 266 268 268 268 266 265 265 268 271 272 272 272 272 276 277 277 279 279 279 280 284 286
256 254 257 260 260 261 260 261 262 263 263 264 263 263 264 264 264 266 268 267 265 265 265 266 267 267 268 270 276 275 279 278 279 279 280 281 282 285
255 253 254 257 258 259 259 260 260 261 263 262 263 262 263 263 264 265 267 266 265 265 265 266 265 264 262 261 269 278 279 280 280 280 282 282 282 284
253 251 252 253 255 257 257 258 258 259 260 261 261 261 262 263 263 265 266 264 264 264 264 265 265 265 263 262 264 270 277 279 280 280 281 284 286 288
252 253 252 253 254 254 254 254 254 256 258 258 259 260 262 262 264 265 265 265 265 264 262 263 266 269 268 268 265 266 270 278 281 282 284 284 283 284
255 252 252 250 250 250 250 250 253 255 256 258 259 261 262 263 265 265 265 264 264 264 263 265 267 266 266 265 263 265 268 273 280 285 286 287 285 283
254 252 250 249 249 248 248 248 251 255 256 258 259 261 262 264 265 265 264 264 264 263 264 263 264 265 265 265 265 266 268 271 276 280 285 287 287 287
Wind_Speed
4 4 3 1 1 1 0 0 2 6 5 1 2 1 6 6 10 12 12 22 29 29 31 32 34 35 34 35 35 34 33 35 36 34 35 33 30 30
4 4 3 2 1 1 1 1 2 3 8 1 3 6 6 8 12 13 13 25 26 30 31 32 33 34 34 34 34 35 35 36 37 38 37 35 32 31
5 5 4 4 3 2 3 3 4 4 9 8 2 8 12 13 12 12 13 14 13 27 31 32 32 32 33 33 35 36 36 37 37 36 39 38 37 34
7 6 5 4 5 4 4 5 6 6 5 18 11 10 13 14 15 16 13 13 14 23 32 32 32 32 33 33 33 34 34 35 37 38 40 40 39 39
8 8 7 7 6 5 5 5 5 6 6 9 17 10 12 13 16 15 15 16 13 25 28 30 31 31 32 33 34 34 34 35 36 36 37 40 42 40
7 7 7 7 8 6 6 6 6 5 7 10 14 15 13 13 13 15 16 13 13 13 21 25 29 31 33 33 32 32 28 31 35 33 35 36 39 39
7 8 7 9 12 10 6 7 7 7 7 10 13 15 15 13 14 14 18 17 15 13 14 12 12 12 13 22 26 30 32 34 34 34 36 34 38 39
8 8 8 8 11 13 14 15 12 8 10 10 11 15 21 17 14 15 17 18 24 9 14 16 11 15 13 13 28 34 36 36 36 35 35 34 37 38
8 7 7 6 7 7 12 14 16 20 22 16 18 17 23 18 20 22 20 20 22 16 17 20 13 17 13 17 34 36 36 35 36 35 35 33 35 39
8 8 7 6 7 8 9 9 12 13 14 13 15 17 19 17 19 20 22 21 20 16 14 20 14 16 15 15 32 35 35 36 35 35 35 33 32 33
9 8 7 7 11 13 9 9 11 13 14 22 28 32 32 33 32 19 17 17 21 22 12 17 19 17 16 15 14 31 34 34 35 37 35 34 36 31
7 8 10 12 15 14 8 9 10 10 10 14 11 14 20 19 29 16 13 16 16 22 10 16 16 14 19 13 14 14 14 30 31 32 33 32 23 9
6 5 5 11 12 15 17 6 7 13 13 8 10 11 12 13 12 12 14 14 17 21 15 17 17 15 16 19 13 13 13 16 15 17 27 31 25 20
7 6 6 10 11 15 13 15 17 14 5 8 9 11 11 11 11 13 16 17 17 24 21 20 18 16 17 18 20 13 14 14 13 14 13 22 30 27
7 10 11 5 8 9 11 15 10 4 6 8 10 11 12 13 17 17 17 19 21 21 18 22 20 18 16 21 21 16 17 14 14 15 15 15 14 11
8 4 2 2 3 5 5 8 6 6 7 9 11 12 13 13 13 14 16 15 16 16 16 18 21 21 19 19 19 19 17 18 12 13 15 14 12 12
6 3 2 2 2 4 3 6 6 6 7 8 10 12 13 13 14 14 15 16 17 18 17 13 16 20 19 24 19 18 17 18 16 16 15 16 14 14
3 2 1 1 2 4 5 6 6 7 7 9 10 12 13 14 15 15 15 15 17 17 17 15 14 15 15 20 30 18 18 17 16 16 18 17 15 15
3 2 2 2 3 5 5 5 7 7 9 9 10 12 13 14 17 15 16 15 17 17 16 15 14 13 16 19 15 28 18 17 15 15 15 16 19 18
3 3 3 2 3 5 5 5 6 7 8 10 11 12 12 13 15 16 16 18 18 18 17 14 14 13 16 17 18 19 28 15 14 16 16 15 17 27
3 3 3 2 4 6 5 4 7 7 9 11 11 12 12 13 15 16 17 23 24 17 20 17 15 22 15 15 18 19 19 28 27 18 14 14 14 14
4 3 3 2 5 6 4 5 6 7 9 10 12 12 12 13 15 18 18 19 18 17 19 17 17 14 14 15 18 22 17 16 22 30 38 28 11 12
4 4 2 2 5 5 5 4 5 8 9 11 11 12 13 14 15 17 18 18 18 18 18 19 15 14 15 15 19 17 23 20 14 15 14 35 36 36
Wind_Direction
153 147 144 177 181 116 345 262 284 306 306 259 226 66 9 338 322 316 315 310 311 309 304 303 298 293 292 290 288 287 285 281 278 274 275 274 268 268
145 133 116 98 44 47 272 249 221 241 279 98 317 316 327 316 310 309 300 303 303 302 302 300 296 294 290 287 282 279 275 274 274 274 271 271 269 268
131 141 161 156 174 180 235 245 253 249 274 285 330 314 311 306 306 301 298 297 294 298 297 294 294 293 288 284 281 280 279 278 276 273 268 269 270 269
153 155 170 186 204 205 215 245 255 258 275 294 301 302 306 305 300 302 299 293 290 285 289 293 294 292 289 284 281 280 278 275 270 266 266 265 266 268
159 171 177 182 213 217 215 237 251 269 281 286 294 304 299 305 307 298 291 286 278 282 284 290 290 290 289 288 287 283 280 276 272 269 262 259 261 264
167 175 184 201 213 210 212 231 247 249 265 274 285 295 298 300 289 295 292 286 290 286 288 282 284 284 284 283 280 278 279 284 283 278 275 250 252 259
178 190 194 210 218 209 204 217 233 242 248 267 279 288 293 297 296 300 291 294 287 286 287 282 281 275 273 277 280 280 280 278 281 279 274 270 247 248
182 196 210 207 229 238 251 258 248 242 256 261 275 285 287 290 292 293 292 294 296 274 277 279 278 274 272 266 268 272 276 277 279 279 277 271 253 244
186 201 209 214 212 230 248 260 270 277 276 280 280 280 290 293 295 290 281 279 277 277 279 280 274 270 270 265 268 271 274 277 278 277 275 273 272 237
192 202 211 224 233 239 253 250 256 253 256 265 270 280 279 281 276 283 285 276 275 275 260 270 278 270 271 264 267 270 273 274 276 278 277 274 276 240
200 205 210 228 236 254 260 261 266 266 273 282 286 289 291 297 296 297 287 291 288 285 278 274 277 273 268 269 266 266 267 270 278 279 275 272 269 255
192 207 215 229 241 259 265 262 273 288 292 283 284 296 295 290 289 280 283 281 280 283 277 260 272 275 278 263 266 262 265 267 267 281 291 260 264 256
180 204 202 239 261 270 277 288 279 288 299 316 295 286 284 282 279 271 270 273 280 276 286 296 290 269 258 276 265 267 268 272 272 273 275 276 258 247
189 192 201 240 261 289 294 297 292 309 323 296 288 286 284 284 284 281 277 272 266 272 284 273 275 269 284 273 269 263 258 256 257 262 261 258 260 256
177 184 210 240 288 302 295 299 313 300 282 283 283 285 285 289 293 285 277 280 278 275 275 276 268 262 259 258 272 267 267 258 252 254 255 250 247 245
153 97 80 359 285 285 307 306 289 280 283 283 285 289 292 292 293 288 295 296 290 288 278 280 280 277 273 267 266 263 256 256 251 247 249 256 249 244
102 64 63 59 315 287 275 275 278 288 289 288 292 296 296 297 298 294 291 297 292 296 294 283 275 272 267 272 263 265 251 250 245 248 244 260 253 243
59 117 112 149 253 286 279 289 291 297 296 298 294 293 293 295 296 295 290 297 294 293 293 293 289 285 278 265 253 256 254 242 240 239 235 239 248 245
105 118 170 188 268 271 270 270 289 295 296 290 287 288 289 290 301 293 302 300 296 294 291 290 286 280 282 278 281 272 259 235 231 233 232 233 243 246
117 154 198 171 256 263 271 288 289 295 298 295 288 287 287 295 297 302 305 304 300 298 294 289 281 273 266 270 277 279 287 275 243 230 233 236 242 252
142 174 195 196 261 261 261 277 271 289 293 290 283 285 291 302 298 306 303 305 302 299 296 293 286 279 271 269 264 268 272 256 245 245 239 234 232 241
149 182 201 178 255 258 267 258 282 295 292 286 289 292 295 294 310 309 307 308 305 300 294 294 296 285 270 259 262 264 268 268 263 259 236 233 229 236
159 185 166 229 258 260 251 249 278 284 286 286 288 293 299 308 316 309 307 306 306 304 303 303 299 288 276 265 259 263 262 266 265 258 244 229 230 240